Regional Weather Roundup
Issued by NWS Tiyan, Guam

Current Version | Previous Version | Text Only | Print | Product List | Glossary On
Versions: 1 2 3 4 5 6 7 8 9 10 11 12 13 14 15 16 17 18 19 20 21 22 23 24 25 26 27 28
000
ASGM40 PGUM 290212
RWRGUM
WEATHER ROUNDUP FOR THE MARIANAS
NATIONAL WEATHER SERVICE TIYAN GU
1200 PM CHST SAT APR 29 2017

GUZ001>004-290300-
MARIANA ISLANDS-

CITY           SKY/WX    TMP DP  RH WIND       PRES   REMARKS
GUAM AIRPORT   MOSUNNY   86  75  70 SE10G21   29.93F HX  95
ANDERSEN AFB   MOSUNNY   86  75  70 SE16      29.94F HX  95
ROTA AIRPORT   MOSUNNY   82  73  74 SE13      29.93F
TINIAN AP      MOSUNNY   84  75  74 SE13      29.90F HX  92
SAIPAN AP      MOSUNNY   86  73  66 SE16      29.92F HX  93

$$





USA.gov is the U.S. government's official web portal to all federal, state and local government web resources and services.